UAE40X KLAX-KSFO

Flight info

Callsign UAE40X
Flight time 0h 56m
Altitude 32000
Route SUMMR2 STOKD SERFR SERFR4
Aircraft B77W/H-SDE1E2E3FGHIJ2J3J4J5M1RWXY/LB1D1

Departure

Time 2026-04-22 22:00
Airport Los Angeles International Airport (KLAX)

Arrival

Time 2026-04-22 22:56
Airport San Francisco International Airport (KSFO)
Time Latitude Longitude Altitude Speed Heading
2026-04-22 21:31 33.94176 -118.41108 130 ft 0 kts 82°
2026-04-22 21:52 33.94175 -118.41114 130 ft 4 kts 83°
2026-04-22 21:52 33.94172 -118.41146 128 ft 4 kts 83°
2026-04-22 21:52 33.94170 -118.41172 125 ft 4 kts 82°
2026-04-22 21:53 33.94163 -118.41199 125 ft 4 kts 34°
2026-04-22 21:53 33.94143 -118.41202 130 ft 4 kts 353°
2026-04-22 21:53 33.94117 -118.41199 126 ft 3 kts 353°
2026-04-22 21:53 33.94115 -118.41198 126 ft 0 kts 353°
2026-04-22 21:56 33.94165 -118.41206 127 ft 15 kts 353°
2026-04-22 21:56 33.94310 -118.41226 128 ft 23 kts 354°
2026-04-22 21:56 33.94470 -118.41251 128 ft 23 kts 351°
2026-04-22 21:56 33.94631 -118.41275 126 ft 23 kts 353°
2026-04-22 21:57 33.94758 -118.41293 127 ft 14 kts 360°
2026-04-22 21:57 33.94798 -118.41243 127 ft 8 kts 77°
2026-04-22 21:57 33.94806 -118.41167 127 ft 11 kts 83°
2026-04-22 21:57 33.94816 -118.41072 127 ft 12 kts 83°
2026-04-22 21:58 33.94826 -118.40971 127 ft 14 kts 83°
2026-04-22 21:58 33.94844 -118.40798 130 ft 27 kts 83°
2026-04-22 21:58 33.94867 -118.40572 127 ft 27 kts 83°
2026-04-22 21:58 33.94890 -118.40346 125 ft 27 kts 83°
2026-04-22 21:59 33.94913 -118.40124 129 ft 14 kts 83°
2026-04-22 21:59 33.94924 -118.40017 130 ft 13 kts 83°
2026-04-22 21:59 33.94959 -118.39922 126 ft 13 kts 34°
2026-04-22 21:59 33.95037 -118.39946 127 ft 13 kts 300°
2026-04-22 22:00 33.95034 -118.40044 130 ft 15 kts 264°
2026-04-22 22:00 33.94998 -118.40395 130 ft 82 kts 262°
2026-04-22 22:00 33.94893 -118.41390 155 ft 154 kts 262°
2026-04-22 22:00 33.94747 -118.42696 955 ft 154 kts 261°
2026-04-22 22:01 33.94613 -118.43994 1955 ft 154 kts 263°
2026-04-22 22:01 33.94484 -118.45348 2670 ft 171 kts 264°
2026-04-22 22:01 33.94347 -118.46877 3065 ft 200 kts 267°
2026-04-22 22:01 33.94277 -118.48697 3299 ft 236 kts 269°
2026-04-22 22:02 33.94224 -118.50746 3995 ft 250 kts 269°
2026-04-22 22:02 33.94101 -118.52864 4951 ft 254 kts 266°
2026-04-22 22:02 33.93924 -118.54978 6042 ft 255 kts 266°
2026-04-22 22:02 33.93748 -118.57112 7009 ft 259 kts 267°
2026-04-22 22:03 33.93573 -118.59288 7914 ft 263 kts 266°
2026-04-22 22:03 33.93397 -118.61499 8880 ft 266 kts 266°
2026-04-22 22:03 33.93220 -118.63725 9898 ft 267 kts 266°
2026-04-22 22:03 33.93043 -118.65979 10658 ft 279 kts 266°
2026-04-22 22:04 33.92856 -118.68415 10928 ft 308 kts 266°
2026-04-22 22:04 33.92651 -118.71068 11301 ft 331 kts 265°
2026-04-22 22:04 33.92433 -118.73864 11922 ft 339 kts 265°
2026-04-22 22:04 33.92211 -118.76697 11966 ft 341 kts 265°
2026-04-22 22:05 33.91988 -118.79537 11988 ft 341 kts 265°
2026-04-22 22:05 33.91765 -118.82381 11979 ft 340 kts 265°
2026-04-22 22:05 33.91650 -118.85223 12189 ft 341 kts 271°
2026-04-22 22:05 33.91756 -118.88082 13363 ft 342 kts 273°
2026-04-22 22:06 33.91892 -118.90940 14623 ft 342 kts 273°
2026-04-22 22:06 33.92003 -118.93799 15807 ft 342 kts 272°
2026-04-22 22:06 33.92094 -118.96625 16938 ft 344 kts 272°
2026-04-22 22:06 33.92191 -118.99500 18048 ft 343 kts 274°
2026-04-22 22:07 33.92709 -119.02331 18892 ft 352 kts 288°
2026-04-22 22:07 33.93839 -119.04989 19731 ft 362 kts 298°
2026-04-22 22:07 33.95210 -119.07560 20584 ft 368 kts 298°
2026-04-22 22:07 33.96607 -119.10173 21422 ft 374 kts 298°
2026-04-22 22:08 33.98007 -119.12842 22250 ft 379 kts 297°
2026-04-22 22:08 33.99410 -119.15552 23065 ft 385 kts 297°
2026-04-22 22:08 34.00916 -119.18254 23805 ft 395 kts 304°
2026-04-22 22:08 34.02975 -119.20526 24469 ft 407 kts 317°
2026-04-22 22:09 34.05291 -119.22454 25205 ft 411 kts 318°
2026-04-22 22:09 34.07648 -119.24422 25920 ft 414 kts 318°
2026-04-22 22:09 34.10021 -119.26425 26553 ft 418 kts 318°
2026-04-22 22:09 34.12408 -119.28459 27198 ft 422 kts 317°
2026-04-22 22:10 34.14815 -119.30521 27835 ft 426 kts 317°
2026-04-22 22:10 34.17235 -119.32602 28516 ft 428 kts 317°
2026-04-22 22:10 34.19654 -119.34684 29374 ft 426 kts 317°
2026-04-22 22:10 34.22025 -119.36725 30347 ft 422 kts 317°
2026-04-22 22:11 34.24406 -119.38778 31116 ft 419 kts 317°
2026-04-22 22:11 34.26766 -119.40817 31816 ft 417 kts 317°
2026-04-22 22:11 34.29139 -119.42873 32167 ft 421 kts 316°
2026-04-22 22:12 34.33891 -119.46988 32133 ft 417 kts 316°
2026-04-22 22:12 34.38582 -119.51053 32124 ft 415 kts 316°
2026-04-22 22:13 34.43101 -119.55367 32121 ft 409 kts 309°
2026-04-22 22:13 34.47029 -119.60262 32104 ft 408 kts 307°
2026-04-22 22:14 34.50947 -119.65251 32117 ft 408 kts 307°
2026-04-22 22:14 34.54905 -119.70202 32120 ft 409 kts 307°
2026-04-22 22:15 34.58894 -119.75139 32121 ft 409 kts 308°
2026-04-22 22:15 34.62858 -119.80035 32116 ft 409 kts 308°
2026-04-22 22:16 34.66842 -119.84957 32133 ft 408 kts 308°
2026-04-22 22:16 34.70813 -119.89872 32133 ft 407 kts 307°
2026-04-22 22:17 34.74771 -119.94793 32181 ft 406 kts 307°
2026-04-22 22:17 34.78710 -119.99688 32144 ft 404 kts 307°
2026-04-22 22:18 34.82608 -120.04538 32156 ft 404 kts 307°
2026-04-22 22:18 34.86532 -120.09429 32182 ft 404 kts 307°
2026-04-22 22:19 34.90458 -120.14329 32236 ft 404 kts 307°
2026-04-22 22:19 34.94367 -120.19224 32210 ft 402 kts 307°
2026-04-22 22:20 34.98274 -120.24112 32201 ft 403 kts 307°
2026-04-22 22:20 35.02157 -120.28977 32200 ft 403 kts 307°
2026-04-22 22:21 35.06060 -120.33882 32201 ft 403 kts 307°
2026-04-22 22:21 35.09994 -120.38754 32215 ft 403 kts 308°
2026-04-22 22:22 35.14127 -120.43391 32212 ft 403 kts 310°
2026-04-22 22:22 35.18249 -120.47941 32223 ft 400 kts 310°
2026-04-22 22:23 35.22371 -120.52529 32201 ft 401 kts 310°
2026-04-22 22:23 35.26469 -120.57144 32213 ft 402 kts 309°
2026-04-22 22:24 35.30588 -120.61781 32203 ft 403 kts 309°
2026-04-22 22:24 35.34679 -120.66391 32183 ft 401 kts 309°
2026-04-22 22:25 35.38771 -120.71006 32215 ft 400 kts 309°
2026-04-22 22:25 35.42856 -120.75626 32203 ft 399 kts 309°
2026-04-22 22:26 35.46914 -120.80222 32224 ft 395 kts 309°
2026-04-22 22:26 35.51117 -120.84615 32233 ft 399 kts 314°
2026-04-22 22:27 35.55557 -120.88660 32231 ft 400 kts 315°
2026-04-22 22:27 35.60033 -120.92726 32228 ft 400 kts 314°
2026-04-22 22:28 35.64477 -120.96821 32213 ft 399 kts 314°
2026-04-22 22:28 35.68898 -121.00933 32230 ft 399 kts 314°
2026-04-22 22:29 35.73303 -121.05043 32234 ft 401 kts 314°
2026-04-22 22:29 35.77748 -121.09198 32241 ft 401 kts 313°
2026-04-22 22:30 35.82188 -121.13354 32235 ft 400 kts 313°
2026-04-22 22:30 35.86617 -121.17504 32224 ft 399 kts 313°
2026-04-22 22:31 35.91028 -121.21644 32277 ft 398 kts 313°
2026-04-22 22:31 35.95397 -121.25750 32210 ft 396 kts 313°
2026-04-22 22:32 35.99760 -121.29856 32208 ft 393 kts 313°
2026-04-22 22:32 36.04099 -121.33948 32209 ft 392 kts 313°
2026-04-22 22:33 36.08508 -121.37998 32253 ft 396 kts 316°
2026-04-22 22:33 36.13055 -121.41493 31738 ft 378 kts 318°
2026-04-22 22:33 36.15262 -121.43150 31303 ft 368 kts 317°
2026-04-22 22:34 36.17443 -121.44803 30830 ft 365 kts 317°
2026-04-22 22:34 36.19593 -121.46458 30372 ft 362 kts 317°
2026-04-22 22:34 36.21723 -121.48110 29855 ft 360 kts 317°
2026-04-22 22:34 36.23835 -121.49757 29308 ft 357 kts 317°
2026-04-22 22:35 36.25903 -121.51388 28888 ft 350 kts 317°
2026-04-22 22:35 36.27949 -121.52991 28388 ft 345 kts 317°
2026-04-22 22:35 36.29976 -121.54563 27908 ft 343 kts 317°
2026-04-22 22:35 36.31958 -121.56093 27448 ft 338 kts 318°
2026-04-22 22:36 36.33929 -121.57631 27020 ft 332 kts 318°
2026-04-22 22:36 36.35867 -121.59169 26605 ft 329 kts 317°
2026-04-22 22:36 36.37794 -121.60692 26157 ft 330 kts 318°
2026-04-22 22:36 36.39748 -121.62231 25722 ft 336 kts 319°
2026-04-22 22:37 36.41756 -121.63810 25297 ft 346 kts 319°
2026-04-22 22:37 36.43799 -121.65413 24804 ft 349 kts 320°
2026-04-22 22:37 36.45855 -121.67024 24338 ft 348 kts 320°
2026-04-22 22:37 36.47897 -121.68628 23862 ft 348 kts 320°
2026-04-22 22:38 36.49913 -121.70214 23343 ft 347 kts 320°
2026-04-22 22:38 36.51944 -121.71820 22823 ft 344 kts 320°
2026-04-22 22:38 36.53958 -121.73412 22357 ft 342 kts 321°
2026-04-22 22:38 36.55958 -121.74988 21907 ft 340 kts 321°
2026-04-22 22:39 36.57948 -121.76560 21457 ft 338 kts 321°
2026-04-22 22:39 36.59923 -121.78123 21017 ft 336 kts 321°
2026-04-22 22:39 36.61890 -121.79683 20517 ft 335 kts 321°
2026-04-22 22:39 36.63873 -121.81258 19902 ft 339 kts 322°
2026-04-22 22:40 36.65855 -121.82830 19404 ft 333 kts 322°
2026-04-22 22:40 36.67729 -121.84311 18956 ft 318 kts 322°
2026-04-22 22:40 36.69590 -121.85789 18528 ft 317 kts 322°
2026-04-22 22:40 36.71452 -121.87271 18047 ft 317 kts 322°
2026-04-22 22:41 36.73310 -121.88744 17595 ft 316 kts 323°
2026-04-22 22:41 36.75328 -121.89867 17140 ft 321 kts 339°
2026-04-22 22:41 36.77508 -121.90453 16753 ft 320 kts 342°
2026-04-22 22:41 36.79687 -121.91019 16326 ft 319 kts 342°
2026-04-22 22:42 36.81848 -121.91594 15904 ft 317 kts 342°
2026-04-22 22:42 36.84001 -121.92180 15488 ft 316 kts 342°
2026-04-22 22:42 36.86143 -121.92770 15070 ft 314 kts 342°
2026-04-22 22:42 36.88246 -121.93354 14677 ft 313 kts 342°
2026-04-22 22:43 36.90371 -121.93948 14274 ft 312 kts 342°
2026-04-22 22:43 36.92490 -121.94540 13846 ft 312 kts 342°
2026-04-22 22:43 36.94597 -121.95130 13398 ft 310 kts 343°
2026-04-22 22:43 36.96675 -121.95802 12982 ft 307 kts 340°
2026-04-22 22:44 36.98707 -121.96589 12582 ft 305 kts 339°
2026-04-22 22:44 37.00722 -121.97398 12184 ft 303 kts 339°
2026-04-22 22:44 37.02721 -121.98201 11796 ft 301 kts 339°
2026-04-22 22:44 37.04717 -121.98995 11413 ft 300 kts 340°
2026-04-22 22:45 37.06673 -121.99768 11053 ft 298 kts 340°
2026-04-22 22:45 37.08647 -122.00546 10668 ft 297 kts 340°
2026-04-22 22:45 37.10614 -122.01319 10392 ft 291 kts 341°
2026-04-22 22:45 37.12450 -122.02035 10242 ft 264 kts 341°
2026-04-22 22:46 37.14175 -122.02710 10125 ft 256 kts 341°
2026-04-22 22:46 37.15843 -122.03362 10027 ft 247 kts 341°
2026-04-22 22:46 37.17481 -122.04005 9733 ft 246 kts 341°
2026-04-22 22:46 37.19136 -122.04655 9469 ft 255 kts 341°
2026-04-22 22:47 37.20855 -122.05330 9142 ft 257 kts 341°
2026-04-22 22:47 37.22525 -122.05984 8675 ft 246 kts 341°
2026-04-22 22:47 37.24131 -122.06613 8406 ft 243 kts 341°
2026-04-22 22:47 37.25739 -122.07246 8134 ft 241 kts 341°
2026-04-22 22:48 37.27310 -122.07856 8048 ft 231 kts 340°
2026-04-22 22:48 37.28831 -122.08457 7742 ft 232 kts 341°
2026-04-22 22:48 37.30383 -122.09065 7432 ft 235 kts 341°
2026-04-22 22:48 37.31958 -122.09692 7108 ft 240 kts 342°
2026-04-22 22:49 37.33568 -122.10331 6792 ft 245 kts 342°
2026-04-22 22:49 37.35177 -122.10965 6450 ft 246 kts 342°
2026-04-22 22:49 37.36813 -122.11609 6104 ft 247 kts 342°
2026-04-22 22:49 37.38455 -122.12229 5789 ft 246 kts 345°
2026-04-22 22:50 37.40106 -122.12789 5500 ft 245 kts 345°
2026-04-22 22:50 37.41751 -122.13344 5209 ft 244 kts 345°
2026-04-22 22:50 37.43387 -122.13902 4933 ft 244 kts 345°
2026-04-22 22:50 37.45018 -122.14458 4604 ft 239 kts 345°
2026-04-22 22:51 37.46576 -122.14974 4298 ft 223 kts 344°
2026-04-22 22:51 37.48031 -122.15451 4052 ft 212 kts 343°
2026-04-22 22:51 37.49446 -122.15918 3798 ft 210 kts 343°
2026-04-22 22:51 37.50834 -122.16375 3595 ft 207 kts 343°
2026-04-22 22:52 37.52232 -122.16836 3354 ft 209 kts 343°
2026-04-22 22:52 37.53528 -122.17516 3041 ft 194 kts 315°
2026-04-22 22:52 37.54245 -122.18866 2846 ft 186 kts 295°
2026-04-22 22:52 37.54861 -122.20329 2620 ft 189 kts 297°
2026-04-22 22:53 37.55471 -122.21755 2411 ft 180 kts 296°
2026-04-22 22:53 37.56049 -122.23120 2183 ft 173 kts 296°
2026-04-22 22:53 37.56602 -122.24422 1999 ft 164 kts 296°
2026-04-22 22:53 37.57115 -122.25634 1765 ft 153 kts 296°
2026-04-22 22:54 37.57617 -122.26817 1556 ft 155 kts 296°
2026-04-22 22:54 37.58113 -122.27998 1369 ft 147 kts 296°
2026-04-22 22:54 37.58566 -122.29079 1179 ft 136 kts 296°
2026-04-22 22:54 37.59012 -122.30143 1042 ft 140 kts 296°
2026-04-22 22:55 37.59467 -122.31233 833 ft 141 kts 296°
2026-04-22 22:55 37.59920 -122.32350 646 ft 145 kts 297°
2026-04-22 22:55 37.60858 -122.34626 295 ft 148 kts 300°
2026-04-22 22:56 37.61340 -122.35720 52 ft 136 kts 302°
2026-04-22 22:56 37.61749 -122.36656 28 ft 108 kts 297°
2026-04-22 22:56 37.62045 -122.37362 24 ft 74 kts 298°
2026-04-22 22:56 37.62183 -122.37702 30 ft 23 kts 287°
2026-04-22 22:57 37.62209 -122.37902 27 ft 23 kts 277°
2026-04-22 22:57 37.62228 -122.38104 30 ft 23 kts 274°
2026-04-22 22:57 37.62227 -122.38261 26 ft 19 kts 266°
2026-04-22 22:57 37.62219 -122.38431 26 ft 20 kts 267°
2026-04-22 22:58 37.62215 -122.38592 24 ft 19 kts 275°
2026-04-22 22:58 37.62264 -122.38737 21 ft 17 kts 293°
2026-04-22 22:58 37.62257 -122.38884 19 ft 18 kts 281°
2026-04-22 22:58 37.62248 -122.39016 21 ft 13 kts 253°
2026-04-22 22:59 37.62207 -122.39119 22 ft 14 kts 217°
2026-04-22 22:59 37.62120 -122.39176 20 ft 15 kts 207°
2026-04-22 22:59 37.62037 -122.39231 23 ft 10 kts 207°
2026-04-22 22:59 37.61975 -122.39225 23 ft 9 kts 144°
2026-04-22 23:00 37.61936 -122.39224 23 ft 5 kts 199°
2026-04-22 23:00 37.61931 -122.39227 24 ft 1 kts 202°
2026-04-22 23:00 37.61923 -122.39232 23 ft 2 kts 206°
2026-04-22 23:00 37.61910 -122.39240 24 ft 1 kts 207°
2026-04-22 23:01 37.61907 -122.39242 24 ft 0 kts 206°